Location: Mountain Grove
(34.0887°N, 86.6172°W)
Time: 00:07:10
(UTC+00:00)

IRS-1C - Pass Details

Date: 14 July 2020
Orbit: 815 x 817 km, 98.8° (Epoch: 12 August)

Event Time Altitude Azimuth Distance (km) Brightness Sun altitude
Rises 07:59:20 0° 17° (NNE) 3,347 8.5 -26.7°
Reaches altitude 10° 08:01:44 10° 22° (NNE) 2,411 7.5 -26.4°
Maximum altitude 08:06:59 59° 101° (E) 938 4.4 -25.8°
Enters shadow 08:08:01 50° 145° (SE) 1,034 4.4 -25.7°
